Temp
8 7 7 8 8 8 8 8 8 8 8 8 8 9 9 9 9 9 9 9 9 9 9 9 8 8 8 8 8 8 8 7 7 7 7 7 7 7 7 6 6 6 6
8 7 7 7 8 8 8 8 8 8 8 8 9 8 8 9 9 9 8 8 9 9 8 8 8 8 8 8 8 7 7 7 7 7 6 6 6 6 6 6 6 6 6
7 7 7 7 8 8 8 8 8 8 8 8 8 8 8 9 9 9 9 8 8 8 8 8 8 8 8 7 7 7 7 6 7 7 6 6 6 6 5 5 5 5 5
7 7 7 7 7 8 8 8 8 8 8 9 8 9 9 9 9 9 8 8 8 8 8 8 8 8 7 7 7 7 7 6 7 7 6 6 6 6 5 5 5 5 5
6 7 7 7 7 8 8 8 8 9 9 9 8 8 8 8 9 8 8 8 8 8 8 8 8 7 7 7 7 7 7 7 6 6 6 6 6 6 5 5 5 4 4
6 6 7 7 7 7 8 8 8 9 9 9 9 9 9 8 8 8 8 8 8 8 8 8 7 7 7 7 7 7 7 7 7 7 7 6 6 6 6 5 5 4 4
6 6 7 7 7 7 8 8 8 8 9 9 9 9 9 8 8 8 8 8 8 8 7 7 7 7 7 7 7 7 7 7 7 6 6 7 7 6 6 6 5 5 4
5 6 6 7 7 7 7 7 8 8 9 9 9 9 8 8 8 8 8 8 8 8 8 7 7 7 7 7 7 7 7 7 7 6 7 7 7 6 6 6 5 5 4
5 5 6 6 6 7 7 8 8 8 8 8 9 8 9 8 8 8 8 8 8 8 7 7 6 7 7 7 7 7 7 7 7 7 6 7 7 7 6 6 5 5 4
5 5 5 6 6 6 7 7 7 7 7 8 8 8 8 9 8 8 8 8 7 7 7 6 6 6 7 7 7 7 7 7 7 7 7 7 7 7 6 6 5 5 4
4 4 5 5 6 6 7 7 7 7 7 7 8 7 7 8 8 7 7 8 7 7 6 6 6 6 6 7 7 7 7 7 7 7 6 7 7 7 7 6 6 5 5
4 4 4 5 5 6 6 7 7 7 7 7 7 7 7 7 7 7 7 7 7 6 6 6 6 6 6 6 7 7 7 7 7 7 7 6 6 7 7 6 6 6 5
4 4 4 5 6 6 6 6 6 7 7 7 7 7 7 7 6 7 7 6 6 5 5 5 6 6 6 6 6 6 6 6 7 7 7 6 6 6 6 6 6 6 6
4 4 4 5 6 6 6 6 6 6 6 7 7 7 7 7 7 6 6 6 6 5 5 5 5 6 6 6 6 6 6 6 6 6 6 6 6 6 6 6 6 6 6
3 4 4 4 5 6 6 6 6 6 6 6 7 6 7 6 6 6 6 6 6 5 5 5 5 5 5 6 6 6 6 6 6 6 6 6 6 6 6 6 6 6 6
3 3 3 4 4 5 5 6 6 6 6 6 6 6 6 6 6 6 6 5 6 5 5 5 5 5 5 6 6 6 6 6 6 6 6 6 6 6 6 6 6 6 6
3 3 2 3 4 4 5 5 5 5 5 5 6 6 6 6 6 6 6 5 5 5 5 5 5 5 5 5 5 5 5 6 6 6 6 6 6 6 6 6 6 6 6
2 3 2 2 3 4 4 4 4 5 5 5 5 5 6 6 6 6 5 5 5 4 4 5 5 4 5 5 5 5 5 5 5 5 6 6 6 6 6 6 6 6 6
1 3 2 2 3 3 3 3 4 4 4 5 5 5 6 6 6 6 5 5 5 4 4 4 4 4 4 4 5 5 5 5 5 5 5 5 6 6 6 6 6 6 6
0 2 2 2 3 3 2 3 3 3 4 4 4 4 5 5 5 5 5 5 4 4 4 4 4 4 4 4 4 4 4 4 4 5 5 5 5 5 6 6 6 6 6
1 1 1 1 2 2 2 2 2 3 3 3 3 4 4 4 5 5 5 5 4 4 3 3 3 3 3 4 4 3 3 3 4 4 4 5 5 5 5 5 5 6 6
-0 0 1 1 2 2 2 2 3 2 3 3 3 3 4 4 4 4 4 4 4 3 3 3 2 3 3 3 2 3 2 3 4 4 4 4 4 5 5 5 5 5 5
-0 0 1 1 2 1 2 2 2 2 2 3 3 3 3 3 3 3 3 3 3 3 2 3 2 3 3 3 2 2 2 2 3 3 3 4 5 5 5 4 5 5 5
-1 -0 -0 0 0 1 1 1 1 2 2 2 2 3 3 3 3 3 3 3 3 3 3 3 3 3 3 2 2 2 1 1 1 3 3 3 4 4 4 4 4 4 4
-2 -2 -1 -1 -0 -0 0 1 1 1 1 2 2 2 2 3 3 2 2 2 3 3 2 2 2 2 2 2 1 1 1 1 2 2 2 2 3 3 3 3 3 4 4
-2 -2 -1 -1 -2 -2 -1 -0 -0 1 1 1 1 1 2 1 1 2 2 2 3 3 2 2 2 2 2 1 1 1 1 1 1 2 3 2 2 2 2 3 3 3 3
Height
3125 3130 3134 3138 3141 3144 3148 3150 3154 3158 3159 3163 3165 3167 3170 3172 3174 3176 3177 3178 3179 3180 3181 3182 3182 3183 3183 3183 3183 3183 3182 3182 3181 3180 3179 3178 3177 3176 3175 3174 3173 3172 3171
3123 3128 3132 3135 3139 3142 3146 3149 3153 3157 3159 3162 3165 3167 3169 3171 3173 3175 3177 3178 3180 3181 3182 3182 3183 3184 3184 3185 3184 3184 3184 3183 3182 3181 3181 3180 3179 3178 3176 3175 3175 3173 3172
3120 3125 3129 3132 3136 3139 3144 3147 3151 3155 3158 3160 3164 3167 3169 3171 3173 3175 3177 3178 3180 3181 3182 3183 3184 3184 3185 3186 3186 3185 3185 3184 3183 3183 3181 3180 3180 3179 3178 3177 3176 3175 3174
3115 3121 3125 3129 3133 3137 3140 3144 3149 3153 3156 3159 3163 3166 3168 3170 3172 3175 3176 3178 3180 3181 3182 3183 3184 3185 3185 3186 3186 3186 3186 3185 3184 3183 3183 3181 3180 3180 3179 3178 3177 3177 3175
3112 3117 3121 3125 3130 3134 3137 3142 3146 3151 3154 3157 3161 3164 3167 3170 3172 3173 3176 3178 3180 3181 3182 3184 3185 3185 3186 3186 3186 3186 3186 3185 3184 3184 3183 3182 3181 3180 3180 3179 3178 3177 3176
3107 3112 3116 3121 3126 3130 3135 3139 3143 3148 3152 3155 3159 3162 3166 3168 3171 3173 3175 3177 3179 3181 3182 3184 3185 3186 3186 3186 3186 3186 3186 3186 3185 3184 3184 3183 3182 3181 3180 3179 3178 3178 3177
3102 3107 3112 3117 3122 3127 3132 3136 3140 3144 3148 3152 3156 3160 3164 3167 3169 3172 3174 3176 3178 3180 3182 3183 3184 3185 3186 3186 3186 3186 3186 3186 3186 3185 3184 3183 3183 3182 3181 3180 3179 3178 3178
3096 3102 3108 3114 3118 3122 3127 3132 3137 3141 3146 3150 3154 3157 3161 3165 3167 3170 3172 3174 3176 3179 3181 3182 3183 3184 3185 3186 3186 3186 3187 3187 3186 3185 3185 3184 3184 3183 3182 3181 3180 3179 3179
3090 3098 3104 3109 3114 3118 3123 3128 3133 3138 3143 3148 3150 3154 3157 3160 3164 3168 3170 3173 3175 3177 3180 3181 3182 3183 3184 3185 3185 3186 3186 3187 3187 3186 3185 3185 3184 3184 3183 3182 3181 3180 3179
3086 3093 3099 3104 3109 3113 3118 3124 3130 3135 3139 3143 3148 3150 3154 3159 3161 3164 3168 3171 3173 3176 3178 3180 3181 3182 3183 3184 3185 3185 3186 3186 3187 3186 3186 3186 3185 3184 3184 3183 3182 3182 3180
3079 3086 3092 3097 3103 3108 3114 3119 3124 3130 3135 3139 3143 3148 3150 3154 3157 3161 3165 3168 3171 3174 3176 3178 3180 3181 3182 3183 3184 3185 3186 3186 3186 3186 3186 3187 3186 3185 3185 3184 3183 3182 3181
3071 3078 3085 3091 3097 3103 3108 3114 3120 3125 3131 3135 3138 3143 3147 3150 3155 3157 3161 3165 3169 3172 3174 3176 3178 3179 3180 3181 3183 3184 3185 3185 3186 3187 3186 3186 3186 3186 3185 3185 3184 3183 3182
3062 3071 3078 3084 3091 3098 3104 3109 3114 3119 3125 3130 3134 3139 3143 3146 3149 3153 3157 3160 3165 3168 3171 3173 3175 3177 3179 3180 3181 3182 3184 3184 3185 3186 3186 3186 3186 3186 3186 3186 3185 3184 3183
3059 3068 3074 3080 3087 3091 3097 3102 3107 3113 3119 3125 3129 3133 3138 3142 3145 3149 3152 3156 3160 3164 3167 3170 3172 3174 3176 3178 3179 3181 3182 3183 3184 3185 3185 3186 3185 3186 3186 3186 3185 3185 3184
3054 3062 3068 3073 3078 3083 3089 3095 3101 3107 3113 3119 3123 3128 3133 3137 3142 3144 3148 3152 3156 3160 3164 3166 3169 3171 3173 3175 3177 3178 3180 3182 3183 3183 3184 3185 3184 3184 3184 3184 3184 3184 3184
3047 3055 3061 3066 3071 3077 3083 3088 3095 3101 3107 3113 3118 3123 3128 3132 3137 3140 3144 3149 3153 3157 3159 3162 3165 3168 3170 3172 3173 3176 3178 3179 3181 3182 3182 3183 3183 3184 3184 3184 3184 3184 3184
3040 3048 3054 3060 3065 3071 3076 3083 3089 3095 3101 3107 3112 3117 3123 3127 3131 3135 3139 3144 3148 3152 3155 3158 3161 3164 3166 3168 3170 3172 3175 3176 3178 3179 3180 3181 3181 3182 3182 3182 3183 3183 3183
3026 3041 3047 3053 3058 3063 3069 3076 3082 3088 3094 3100 3107 3112 3117 3121 3126 3130 3135 3139 3144 3148 3151 3153 3156 3159 3162 3164 3166 3168 3170 3172 3174 3176 3177 3178 3178 3179 3179 3180 3180 3181 3181
3019 3031 3038 3045 3051 3056 3062 3068 3075 3081 3088 3094 3100 3105 3110 3114 3119 3125 3129 3134 3139 3143 3146 3148 3152 3155 3157 3159 3162 3164 3166 3168 3170 3172 3173 3174 3175 3176 3176 3177 3177 3177 3177
3012 3014 3029 3036 3042 3048 3055 3062 3068 3073 3080 3086 3092 3098 3103 3107 3113 3118 3123 3128 3133 3137 3140 3142 3146 3149 3151 3154 3156 3159 3162 3163 3165 3167 3169 3170 3171 3172 3173 3173 3173 3173 3174
3004 3013 3016 3026 3034 3041 3047 3054 3060 3066 3072 3078 3083 3089 3094 3101 3107 3112 3117 3121 3126 3129 3133 3136 3139 3142 3146 3149 3151 3154 3155 3158 3160 3161 3163 3165 3166 3167 3168 3169 3169 3169 3169
2996 3002 3006 3017 3025 3035 3041 3047 3053 3058 3064 3070 3076 3081 3086 3092 3098 3103 3108 3113 3118 3122 3126 3130 3133 3136 3140 3143 3144 3146 3149 3151 3153 3156 3156 3158 3159 3161 3163 3164 3164 3165 3165
2986 2990 2998 3007 3013 3024 3028 3037 3043 3049 3054 3060 3067 3072 3077 3083 3089 3093 3099 3104 3109 3113 3117 3122 3125 3129 3133 3136 3138 3140 3142 3143 3145 3146 3148 3150 3152 3155 3156 3157 3158 3158 3159
2975 2981 2989 2996 3003 3011 3017 3028 3034 3041 3047 3051 3056 3062 3068 3074 3080 3085 3090 3094 3098 3103 3108 3112 3117 3123 3125 3128 3129 3132 3133 3134 3135 3137 3141 3143 3145 3148 3148 3150 3151 3151 3152
2968 2973 2979 2985 2993 2998 3001 3014 3024 3030 3036 3041 3047 3053 3058 3063 3069 3076 3080 3084 3088 3092 3100 3105 3109 3114 3116 3119 3121 3122 3123 3126 3127 3132 3134 3135 3136 3139 3139 3140 3143 3144 3144
2964 2969 2975 2980 2982 2990 2997 2998 3010 3012 3022 3029 3035 3041 3047 3053 3059 3065 3068 3072 3075 3081 3088 3094 3098 3102 3106 3108 3110 3112 3115 3116 3119 3120 3127 3127 3128 3129 3129 3131 3132 3134 3134
Wind_Speed
26 24 23 24 25 26 27 26 24 22 21 20 21 18 16 14 11 10 9 7 7 6 6 5 5 5 6 7 8 8 9 10 10 11 11 11 11 11 11 11 12 12 12
26 23 22 23 26 26 27 27 25 23 23 21 20 18 17 15 13 11 10 8 7 7 6 5 4 4 5 6 7 8 8 9 8 9 9 10 10 10 10 10 11 11 11
27 25 23 23 25 27 28 28 27 26 24 23 21 20 18 16 14 13 11 9 7 7 6 5 4 4 5 5 6 6 6 7 8 8 8 8 9 9 9 9 10 9 10
28 27 26 24 24 26 29 29 28 26 25 24 21 20 19 16 15 12 11 10 8 7 6 5 4 3 3 3 4 5 6 7 7 7 8 8 8 9 9 9 9 8 8
29 28 28 25 25 26 28 29 30 28 26 24 23 21 20 18 15 14 12 10 9 8 6 6 4 3 1 1 3 5 6 6 6 7 7 8 8 8 8 8 8 7 7
31 30 30 28 26 27 28 30 30 30 28 26 24 23 21 19 17 15 14 12 10 8 7 7 4 2 0 0 2 4 5 5 6 6 7 8 8 8 8 8 8 8 7
34 33 32 30 28 28 28 30 31 31 31 28 26 23 21 20 19 16 15 13 11 10 9 8 4 3 2 1 1 3 4 4 4 5 7 8 9 9 9 9 8 8 8
37 36 33 32 30 30 30 31 31 31 31 28 25 24 24 22 20 18 16 14 13 11 10 8 5 4 3 2 1 1 2 3 4 5 6 7 8 9 9 9 9 9 8
40 38 35 33 33 32 32 32 32 31 30 29 28 26 25 24 20 19 17 16 14 13 12 8 6 5 5 3 2 1 1 1 2 4 5 6 8 8 8 9 9 9 9
41 40 37 36 35 35 35 34 33 31 29 29 27 27 24 22 21 20 18 17 16 15 12 9 8 7 6 5 4 3 2 1 1 3 4 5 6 8 8 8 9 9 10
44 42 41 40 38 38 36 35 36 33 31 31 30 26 26 24 24 21 18 17 17 16 12 10 9 9 8 7 6 5 4 3 2 1 3 4 5 6 7 7 7 9 9
47 44 42 42 39 38 38 38 36 35 32 32 32 30 28 25 23 22 21 19 18 16 14 12 11 10 9 9 8 7 6 4 3 2 1 2 2 3 5 6 7 8 8
50 46 44 43 41 39 38 39 37 37 34 34 33 31 30 28 26 26 25 23 22 19 15 13 12 11 11 10 9 9 8 6 5 4 2 1 1 2 4 5 6 6 7
47 43 42 40 40 40 40 41 40 39 37 36 35 32 31 31 29 28 28 27 25 22 19 16 14 13 13 12 11 11 10 9 7 6 4 3 1 0 1 2 4 5 6
45 43 40 40 42 42 42 42 42 41 39 38 36 35 34 33 32 32 32 30 26 23 19 17 15 15 14 13 13 13 13 11 10 8 6 5 3 2 1 1 1 3 4
47 42 40 40 41 41 42 43 42 41 41 39 38 36 35 34 34 35 34 31 27 23 21 19 17 16 16 16 15 15 15 14 13 11 9 7 5 4 3 3 2 2 3
49 43 40 39 39 40 40 40 40 40 40 39 38 36 35 35 36 37 36 33 29 26 22 21 19 18 18 18 18 18 17 16 15 14 12 10 8 7 5 4 4 4 5
45 45 42 40 39 39 38 38 39 40 39 39 37 37 37 37 38 39 37 35 32 27 25 23 21 20 20 20 20 20 20 19 18 16 15 13 12 10 9 7 7 7 7
47 51 47 43 41 39 39 39 38 38 38 38 37 37 38 38 38 40 39 37 35 31 28 26 23 21 22 22 23 22 23 22 20 19 18 17 15 14 12 12 10 10 11
48 44 47 45 42 41 40 39 39 39 39 40 38 38 40 40 39 41 41 39 37 34 32 29 25 24 23 23 24 25 24 24 22 22 21 19 18 18 16 15 15 14 14
43 52 39 43 43 42 43 43 41 41 39 40 40 40 40 39 38 39 41 41 39 38 36 32 29 26 25 25 25 25 26 25 26 26 24 22 22 21 20 19 18 18 18
47 38 41 43 46 41 45 43 44 43 42 42 42 41 41 41 41 41 43 43 43 42 39 35 32 29 27 26 27 28 27 28 30 28 28 26 26 26 24 23 22 22 22
51 53 48 50 53 51 48 52 44 46 46 45 43 43 44 43 42 43 43 46 46 45 42 39 37 34 31 30 29 29 29 30 31 32 32 31 31 29 28 27 26 26 26
35 40 47 50 52 59 60 52 50 47 47 47 47 46 45 44 45 42 44 46 48 48 47 46 42 37 36 35 35 34 34 34 34 36 34 32 33 31 32 31 30 30 29
25 23 38 33 42 47 42 53 48 49 50 47 48 49 49 48 46 44 46 48 49 50 48 47 45 41 39 37 37 37 39 38 39 35 35 34 33 34 35 35 34 34 34
24 20 28 31 33 29 35 39 45 47 49 48 52 49 50 50 48 46 48 49 52 52 50 49 49 47 44 43 42 41 39 41 39 41 36 36 34 34 37 37 37 37 38
Wind_Direction
200 198 202 200 201 199 193 191 192 190 183 186 185 187 184 185 172 159 149 150 148 141 129 115 97 82 70 64 58 51 43 49 45 41 39 42 40 41 46 45 46 49 48
203 199 201 203 204 202 198 194 194 195 190 189 190 188 187 190 179 168 160 164 156 142 130 126 108 88 75 67 58 52 42 41 40 39 36 35 38 36 40 41 40 46 47
205 204 206 203 205 204 201 197 197 196 194 193 191 194 192 193 186 180 176 173 170 152 152 142 125 98 79 59 62 52 42 31 28 27 36 35 37 32 34 37 38 40 45
208 205 207 206 205 204 201 199 199 200 197 199 195 198 198 195 194 186 189 182 179 173 167 162 144 118 75 54 59 48 38 31 23 33 35 36 40 34 32 31 36 31 37
208 210 208 207 206 205 202 202 200 202 201 202 200 200 201 201 197 196 192 191 185 188 184 180 165 146 58 53 40 40 35 33 35 35 39 40 36 34 30 29 27 26 30
207 212 210 205 205 208 205 202 202 202 204 203 203 203 202 204 202 202 197 194 192 194 195 190 181 219 241 29 20 40 29 31 43 43 45 46 43 38 34 31 28 26 27
209 213 213 206 205 208 206 205 206 204 206 204 202 204 203 205 205 204 202 198 195 198 201 195 204 251 237 275 24 26 24 42 54 48 44 47 51 47 44 37 37 33 26
212 215 213 212 208 210 206 206 208 207 207 206 206 204 206 205 207 206 205 203 200 202 202 208 230 243 232 252 305 17 36 36 70 69 55 50 50 51 50 45 46 45 41
214 215 214 214 211 211 211 209 209 209 208 210 207 208 207 209 207 207 206 205 203 202 203 222 240 235 232 235 242 223 124 52 72 77 69 56 60 54 57 56 54 53 53
215 217 217 217 215 212 213 212 211 213 211 212 213 214 212 213 211 209 207 207 205 202 207 230 239 235 234 238 240 225 194 172 91 83 75 65 61 60 56 58 58 54 59
214 217 216 217 215 215 211 214 212 212 214 214 214 213 214 208 209 204 209 208 205 203 215 230 234 232 229 231 237 231 213 196 188 126 89 66 58 61 58 61 58 62 57
213 216 217 217 216 215 210 213 213 214 214 215 215 213 211 212 210 205 201 202 204 208 219 227 231 231 227 228 233 229 221 207 199 186 127 90 62 55 63 55 55 53 56
213 216 217 215 215 214 212 212 213 216 216 214 214 213 214 209 208 205 202 197 204 213 221 227 229 230 230 230 232 228 225 215 209 200 208 181 75 46 43 50 54 49 48
215 216 217 216 217 215 212 212 212 214 216 216 214 213 214 215 207 207 204 201 207 211 218 222 227 230 232 236 233 229 226 221 216 212 213 222 202 76 48 43 48 37 39
214 216 217 217 216 215 212 213 212 213 214 215 216 215 215 214 211 210 208 207 214 217 222 227 230 231 231 234 232 230 227 224 223 220 220 221 229 236 227 259 35 33 18
214 214 216 217 216 218 217 213 213 213 214 215 216 217 217 216 214 215 212 211 217 222 226 231 234 235 235 234 232 232 231 229 227 226 226 229 237 248 263 286 313 326 343
213 212 214 217 216 216 219 219 218 218 217 218 218 218 219 219 217 219 215 215 219 223 229 233 238 238 239 238 236 234 232 230 230 231 232 233 237 246 257 267 281 290 300
209 212 212 216 215 215 219 221 222 222 221 220 220 219 220 220 219 220 220 218 221 224 231 235 238 241 243 240 238 236 234 234 235 235 235 236 241 247 256 264 272 278 284
216 212 211 214 214 213 215 217 219 223 225 223 222 222 222 223 222 222 223 222 224 226 231 238 240 242 245 245 241 240 238 238 236 237 237 241 244 250 255 263 269 275 280
218 216 210 216 215 213 216 217 218 220 220 222 223 224 224 225 224 224 225 225 227 229 232 237 239 246 247 247 245 243 243 242 242 240 241 244 248 251 254 259 267 274 280
220 222 224 216 223 221 217 216 217 219 220 221 222 222 224 227 227 228 230 229 229 231 233 237 241 246 248 249 253 251 247 247 245 244 245 247 252 255 259 261 265 270 275
230 228 226 224 228 228 226 223 221 221 222 222 224 223 224 224 225 227 230 231 232 234 237 239 245 247 249 248 250 251 251 251 249 251 252 250 252 253 258 261 265 269 272
229 232 228 217 217 226 229 226 224 224 225 225 225 225 227 225 227 227 230 233 234 235 237 240 242 247 249 250 252 252 251 251 252 252 250 252 252 256 259 262 265 267 271
202 209 219 222 226 225 227 229 226 230 231 230 229 227 228 228 227 229 231 234 236 238 238 240 244 248 251 252 251 252 250 250 249 251 255 258 259 261 263 265 267 269 271
228 225 216 211 210 216 212 223 227 227 235 235 236 235 232 230 230 228 231 234 237 239 240 242 245 247 250 252 254 252 251 254 256 256 256 260 260 261 264 265 267 270 272
213 219 233 213 201 209 219 205 220 219 224 231 236 238 236 238 237 232 233 235 237 238 240 241 243 246 248 249 252 253 255 255 256 256 256 262 262 264 266 265 266 269 271